Weather History for KNRS - February, 2014

Change the Weather History Date:

Sunday, February 9, 2014

  Actual Average Record
Temperature  
Mean Temperature 58 °F -  
Max Temperature 64 °F 60 °F 78 °F (2012)
Min Temperature 53 °F 48 °F 43 °F (2013)
Degree Days  
Heating Degree Days 6    
Growing Degree Days 8 (Base 50)    
Moisture  
Dew Point 53 °F    
Average Humidity 80    
Maximum Humidity 93    
Minimum Humidity 65    
Precipitation  
Precipitation 0.00 in - - ()
Sea Level Pressure  
Sea Level Pressure 30.17 in    
Wind  
Wind Speed 6 mph (NNW)    
Max Wind Speed 17 mph    
Max Gust Speed -    
Visibility 10 miles    
Events      
Averages and records for this station are not official NWS values.
T = Trace of Precipitation, MM = Missing Value Source: NWS Daily Summary

Daily Weather History Graph

Daily Weather History Graph

Search for Another Location

Airport or City:

Trip Planner

Search our weather history database for the weather conditions in past years. The results will help you decide how hot, cold, wet, or windy it might be!

Date:

Astronomy

Feb. 09, 2014 Rise Set
Actual Time 6:36 AM PST 5:28 PM PST
Civil Twilight 6:11 AM PST 5:54 PM PST
Nautical Twilight 5:42 AM PST 6:23 PM PST
Astronomical Twilight 5:13 AM PST 6:52 PM PST
Moon 1:18 PM PST (2/9) 2:40 AM PST (2/9)
Length of Visible Light 11h 43m
Length of Day
10h 52m
Waxing Gibbous, 78% of the Moon is Illuminated
Feb 9
Waxing Gibbous
Feb 14
Full
Feb 22
Last Quarter
Mar 1
New
Mar 8
First Quarter

Hourly Weather History & Observations

Time (PST) Temp. Dew Point Humidity Pressure Visibility Wind Dir Wind Speed Gust Speed Precip Events Conditions
12:56 AM 57.9 °F 53.1 °F 84% 30.23 in 10.0 mi NE 4.6 mph - N/A   Overcast
1:56 AM 57.9 °F 53.1 °F 84% 30.22 in 10.0 mi Calm Calm - N/A   Overcast
2:56 AM 59.0 °F 52.0 °F 78% 30.22 in 10.0 mi North 6.9 mph - N/A   Overcast
3:56 AM 59.0 °F 52.0 °F 78% 30.20 in 10.0 mi North 8.1 mph - N/A   Overcast
4:56 AM 57.9 °F 52.0 °F 81% 30.21 in 10.0 mi NNE 8.1 mph - N/A   Overcast
5:56 AM 57.0 °F 51.1 °F 81% 30.21 in 10.0 mi ENE 4.6 mph - N/A   Overcast
6:56 AM 57.0 °F 51.1 °F 81% 30.21 in 10.0 mi NNE 3.5 mph - N/A   Overcast
7:56 AM 57.9 °F 52.0 °F 81% 30.22 in 10.0 mi ENE 5.8 mph - N/A   Overcast
8:56 AM 59.0 °F 52.0 °F 78% 30.22 in 10.0 mi NE 4.6 mph - N/A   Overcast
9:56 AM 61.0 °F 51.1 °F 70% 30.23 in 10.0 mi North 5.8 mph - N/A   Overcast
10:56 AM 63.0 °F 51.1 °F 65% 30.21 in 10.0 mi North 9.2 mph - N/A   Overcast
11:41 AM 63.0 °F 53.1 °F 70% 30.19 in 10.0 mi WNW 11.5 mph - N/A   Partly Cloudy
11:56 AM 63.0 °F 54.0 °F 72% 30.18 in 10.0 mi West 11.5 mph - N/A   Partly Cloudy
12:56 PM 64.0 °F 54.0 °F 70% 30.16 in 10.0 mi WNW 15.0 mph - N/A   Clear
1:56 PM 63.0 °F 53.1 °F 70% 30.13 in 10.0 mi WNW 17.3 mph - N/A   Clear
2:56 PM 63.0 °F 52.0 °F 67% 30.12 in 10.0 mi WNW 16.1 mph - N/A   Clear
3:56 PM 62.1 °F 52.0 °F 70% 30.13 in 10.0 mi NW 15.0 mph - N/A   Clear
4:56 PM 60.1 °F 53.1 °F 78% 30.13 in 10.0 mi NW 10.4 mph - N/A   Clear
5:56 PM 59.0 °F 53.1 °F 81% 30.13 in 10.0 mi NW 5.8 mph - N/A   Clear
6:56 PM 57.9 °F 53.1 °F 84% 30.14 in 10.0 mi NW 5.8 mph - N/A   Clear
7:46 PM 57.9 °F 54.0 °F 87% 30.15 in 10.0 mi NNW 5.8 mph - N/A   Mostly Cloudy
7:56 PM 57.9 °F 54.0 °F 87% 30.15 in 10.0 mi NNW 5.8 mph - N/A   Mostly Cloudy
8:09 PM 57.9 °F 54.0 °F 87% 30.15 in 10.0 mi NNW 4.6 mph - N/A   Scattered Clouds
8:16 PM 57.9 °F 54.0 °F 87% 30.15 in 10.0 mi NW 4.6 mph - N/A   Mostly Cloudy
8:56 PM 59.0 °F 54.0 °F 83% 30.16 in 10.0 mi NNW 5.8 mph - N/A   Overcast
9:56 PM 57.9 °F 54.0 °F 87% 30.16 in 10.0 mi North 4.6 mph - N/A   Mostly Cloudy
10:56 PM 57.9 °F 53.1 °F 84% 30.16 in 10.0 mi NE 3.5 mph - N/A   Overcast
11:15 PM 55.0 °F 52.0 °F 89% 30.16 in 10.0 mi Calm Calm - N/A   Scattered Clouds
11:46 PM 53.1 °F 51.1 °F 93% 30.16 in 10.0 mi Calm Calm - N/A   Mostly Cloudy
11:56 PM 55.0 °F 53.1 °F 93% 30.16 in 10.0 mi Calm Calm - N/A   Overcast